TimeMDT,TemperatureF,Dew PointF,Humidity,Sea Level PressureIn,VisibilityMPH,Wind Direction,Wind SpeedMPH,Gust SpeedMPH,PrecipitationIn,Events,Conditions,WindDirDegrees,DateUTC
12:52 AM,28.0,15.1,58,30.19,10.0,East,6.9,-,N/A,,Clear,100,2011-10-22 06:52:00
1:52 AM,25.0,14.0,63,30.19,10.0,Calm,Calm,-,N/A,,Clear,0,2011-10-22 07:52:00
2:52 AM,21.9,12.0,66,30.21,10.0,Calm,Calm,-,N/A,,Clear,0,2011-10-22 08:52:00
3:52 AM,21.9,14.0,72,30.19,10.0,Calm,Calm,-,N/A,,Clear,0,2011-10-22 09:52:00
4:52 AM,23.0,12.9,65,30.21,10.0,Calm,Calm,-,N/A,,Clear,0,2011-10-22 10:52:00
5:52 AM,19.9,12.0,71,30.23,10.0,Calm,Calm,-,N/A,,Clear,0,2011-10-22 11:52:00
6:52 AM,21.9,15.1,75,30.29,10.0,South,3.5,-,N/A,,Clear,170,2011-10-22 12:52:00
7:52 AM,25.0,16.0,69,30.29,10.0,Calm,Calm,-,N/A,,Clear,0,2011-10-22 13:52:00
8:52 AM,36.0,19.0,50,30.29,10.0,Calm,Calm,-,N/A,,Clear,0,2011-10-22 14:52:00
9:52 AM,46.0,21.0,37,30.24,10.0,Calm,Calm,-,N/A,,Clear,0,2011-10-22 15:52:00
10:52 AM,53.1,19.9,27,30.23,10.0,Calm,Calm,-,N/A,,Clear,0,2011-10-22 16:52:00
11:52 AM,57.9,19.0,22,30.20,10.0,Variable,3.5,-,N/A,,Clear,0,2011-10-22 17:52:00
12:52 PM,60.1,17.1,19,30.19,10.0,NW,6.9,-,N/A,,Clear,320,2011-10-22 18:52:00
1:52 PM,62.6,17.6,18,30.27,10.0,Variable,6.9,-,N/A,,Clear,0,2011-10-22 19:52:00
2:52 PM,63.0,17.1,17,30.17,10.0,NW,6.9,-,N/A,,Clear,320,2011-10-22 20:52:00
3:52 PM,64.0,17.1,16,30.15,10.0,NNW,9.2,-,N/A,,Clear,340,2011-10-22 21:52:00
4:52 PM,64.0,16.0,16,30.14,10.0,ENE,5.8,-,N/A,,Clear,60,2011-10-22 22:52:00
5:52 PM,60.1,16.0,18,30.17,10.0,South,3.5,-,N/A,,Clear,190,2011-10-22 23:52:00
6:52 PM,46.0,16.0,30,30.25,10.0,South,5.8,-,N/A,,Clear,180,2011-10-23 00:52:00
7:52 PM,45.0,16.0,31,30.25,10.0,SW,6.9,-,N/A,,Clear,220,2011-10-23 01:52:00
8:52 PM,43.0,18.0,37,30.22,10.0,NNE,8.1,-,N/A,,Clear,30,2011-10-23 02:52:00
9:52 PM,36.0,12.0,37,30.23,10.0,SW,3.5,-,N/A,,Clear,230,2011-10-23 03:52:00
10:52 PM,37.0,10.9,34,30.21,10.0,Calm,Calm,-,N/A,,Clear,0,2011-10-23 04:52:00
11:52 PM,28.9,10.9,47,30.22,10.0,Calm,Calm,-,N/A,,Clear,0,2011-10-23 05:52:00